Showing default

GSAT 17, 42815

Orbit data source: Space-Track

GSAT 17, 42815 is a payload satellite owned by ISRO (IN) in GEO that was launched on Wed, 28 Jun 2017 UTC via an ARIANE 5ECA launch vehicle from the French Guiana (FRGUI). Payloads include a variety of satellites, spacecraft, and rockets equipped with specific instruments for various scientific and technological missions. These include communications satellites like Starlink; space stations such as the ISS; scientific satellites like the Hubble; Earth observation satellites from companies like Planet Labs, Umbra, and HawkEye 360; GPS; miniature CubeSats for education and research; and military/defense satellites.

Not visible in the next 10 days
GSAT 17 details
Identifier
42815, 2017-040B
Orbit
GEO
Last TLE update8 hours ago
Origin
Flag of INISRO (IN / IND)
ManufacturerISRO SAC/Banga
MissionOperational Civil Communications
Bus & MotorI3K, ISRO LAM
Mass3,477 kg wet, ~1,400 kg dry
Launch date (UTC)
2017-06-28 (7 years ago)
Launch vehicle
ARIANE 5ECA
Launch site
French Guiana (FRGUI)
Object type
Payload
Rocket body
Debris
Shape & HBRBox + 2 Pan, 20 m
Radar Cross Section15.081 m², Large (>1 m²)

Expand to show TLE details & history

TLE from 8 hours ago
0 GSAT 17
1 42815U 17040B   24348.05257620 -.00000244  00000-0  00000+0 0  9990
2 42815   0.0512 104.6898 0007147 154.1280 295.8373  1.00271161 27348
Epoch: 2024-12-13T01:15Z
Definitive object data (Epoch: 2024-12-13T01:15:42.583Z)
Latitude0.02297°
Longitude93.41738°
Altitude35,773.071 km
Speed3.076 km/s
True Right ascension12h 58m 16s
True Declination0° 01' 23"
Sunlit
Object was in daylight at TLE epoch
Visualization TLE readout
Latitude-0.03453°
Longitude-145.94119°
Altitude35,769.518 km
Speed3.076 km/s
Apparent Right ascension20h 53m 09s
Apparent Declination-5° 00' 02"
Sunlit
Object is in daylight
Visualization observer readout
Local Sidereal Time07:46:07
Azimuth332.219° NNW
Elevation-51.957°
Doppler factor1
Orbital elements
Apogee altitude35,817.976 km
Perigee altitude35,757.704 km
Semi-major axis42,165.977 km
Eccentricity0.0007147
Inclination0.0512°
RAAN104.6898°
Arg. of periapsis154.128°
True anomaly295.76356°
Mean anomaly295.8373°
Eccentric anomaly295.80043°
Mean motion0.25067 °/min
BSTARUnknown
Orbital period1436.16 mins
Loading historical data...
42815 neighbors
Authenticating...
Loading maneuver chart data...
Loading historical data...
Loading historical data...
Loading historical data...
Loading historical data...
Loading historical data...
Loading historical data...
Loading historical data...
Other satellites on launch #40 in the year 2017 (2017-06-28 UTC)

GSAT 17 Visibility forecast

Observer location: undefined°, undefined

GSAT 17 is not visible in the next 10 days
Span
Click to sort rows by Start time (UTC) header in descending order
Start Az.
Max El. time (UTC)
Max El. Az.
Max El.
End time (UTC)
End Az.
|